Location: Newark
(21.1200°N, 73.4000°E)
Time: 10:06:30
(UTC+00:00)

Vanguard 1 Rocket - Pass Details

Date: 21 January 2021
Orbit: 654 x 4223 km, 34.3° (Epoch: 07 March)

Event Time Altitude Azimuth Distance (km) Brightness Sun altitude
Rises 13:48:03 0° 292° (WNW) 3,663 11.4 -13.7°
Reaches altitude 10° 13:50:09 10° 289° (WNW) 2,952 10.9 -14.2°
Maximum altitude 13:57:19 61° 210° (SSW) 1,802 9.0 -15.8°
Drops below altitude 10° 14:11:27 10° 134° (SE) 5,551 11.1 -19.0°
Sets 14:17:05 0° 131° (SE) 7,131 11.6 -20.3°
